Regional Weather Roundup
Issued by NWS

Home | Current Version | Previous Version | Graphics & Text | Print | Product List | Glossary On
Versions: 1 2 3 4 5 6 7 8 9 10 11 12 13 14 15 16 17 18 19 20 21 22 23 24 25 26 27 28 29 30 31 32 33 34 35 36 37 38 39 40 41 42 43 44 45 46 47 48 49 50
000
ASUS43 KMKX 280600
RWRWI

WISCONSIN REGIONAL WEATHER ROUNDUP
NATIONAL WEATHER SERVICE MILWAUKEE/SULLIVAN WI
100 AM CDT SUN MAY 28 2017

NOTE: "FAIR" INDICATES FEW OR NO CLOUDS BELOW 12,000 FEET WITH NO
SIGNIFICANT WEATHER AND/OR OBSTRUCTIONS TO VISIBILITY.

WIZ001-002-006>008-014>016-023>028-280700-
NORTHWEST WISCONSIN

CITY           SKY/WX    TMP DP  RH WIND       PRES   REMARKS
SUPERIOR ARPT  NOT AVBL
ASHLAND        CLOUDY    59  47  64 SW8       29.76F
6HR MIN TEMP:  59; 6HR MAX TEMP:  73;

HAYWARD        CLOUDY    57  50  77 SW3       29.79F
6HR MIN TEMP:  55; 6HR MAX TEMP:  70;

SIREN          CLOUDY    61  49  65 CALM      29.78F
CUMBERLAND     CLOUDY    54  48  82 SW3       29.81F
RICE LAKE      CLOUDY    57  50  77 CALM      29.82F
6HR MIN TEMP:  55; 6HR MAX TEMP:  68;

CHETEK         CLOUDY    54  50  87 CALM      29.82S
LADYSMITH      CLOUDY    56  49  77 CALM      29.83F
EAU CLAIRE     NOT AVBL
MENOMONIE      CLOUDY    56  50  81 CALM      29.81F
6HR MIN TEMP:  55; 6HR MAX TEMP:  66;

NEW RICHMOND   CLOUDY    58  47  66 S5        29.81F
OSCEOLA        CLOUDY    63  47  57 S10       29.81F
$$

WIZ003>005-009-010-017-018-280700-
NORTH CENTRAL WISCONSIN

CITY           SKY/WX    TMP DP  RH WIND       PRES   REMARKS
MANITOWISH WTR CLOUDY    56  51  84 W6        29.80F
ARBOR VITAE    MOCLDY    59  50  71 W3        29.80F
WOODRUFF       MOCLDY    59  50  71 W3        29.80F
RHINELANDER    PTCLDY    54  49  83 W3        29.82F
6HR MIN TEMP:  54; 6HR MAX TEMP:  68;

EAGLE RIVER    CLOUDY    52  46  80 CALM      29.81F
LAND O LAKES   CLOUDY    53  49  89 CALM      29.82F
6HR MIN TEMP:  52; 6HR MAX TEMP:  68;

PHILLIPS       CLOUDY    56  50  81 CALM      29.81S
6HR MIN TEMP:  56; 6HR MAX TEMP:  66;

TOMAHAWK       CLOUDY    50  48  92 CALM      29.82F
MEDFORD        CLOUDY    56  49  79 SW3       29.81F
MERRILL        CLOUDY    57  52  84 CALM      29.82F
6HR MIN TEMP:  57; 6HR MAX TEMP:  67;

$$

WIZ029-030-035-036-043>047-280700-
CENTRAL WISCONSIN

CITY           SKY/WX    TMP DP  RH WIND       PRES   REMARKS
WAUSAU         CLOUDY    60  52  74 NW5       29.80F
6HR MIN TEMP:  59; 6HR MAX TEMP:  67; 6HR PCP: TRACE;

MOSINEE        CLOUDY    57  52  82 W3        29.82F
MARSHFIELD     CLOUDY    57  52  83 NW3       29.81F
6HR MIN TEMP:  57; 6HR MAX TEMP:  66; 6HR PCP: TRACE;

STEVENS POINT  CLOUDY    57  53  86 CALM      29.82S
WAUPACA        CLOUDY    64  51  61 W3        29.81S
WAUTOMA        CLOUDY    61  53  75 CALM      29.81F
6HR MIN TEMP:  61; 6HR MAX TEMP:  72;

WISC RAPIDS    CLOUDY    57  56  96 CALM      29.82F
6HR MIN TEMP:  57; 6HR MAX TEMP:  70; 6HR PCP:  0.02;

CAMP DOUGLAS   CLOUDY    56  54  94 CALM      29.81F
6HR MIN TEMP:  55; 6HR MAX TEMP:  68; 6HR PCP: TRACE;

$$

WIZ011>013-019>022-031-037>040-048>050-280700-
NORTHEAST WISCONSIN

CITY           SKY/WX    TMP DP  RH WIND       PRES   REMARKS
ANTIGO         CLOUDY    58  51  75 CALM      29.82F
SHAWANO        CLOUDY    64  51  62 W3        29.80S
6HR MIN TEMP:  64; 6HR MAX TEMP:  75;

OCONTO         PTCLDY    55  54  97 CALM      29.80R
STURGEON BAY   CLOUDY    60  54  80 SW5       29.80F
6HR MIN TEMP:  57; 6HR MAX TEMP:  64;

GREEN BAY      CLOUDY    62  57  83 CALM      29.81S
6HR MIN TEMP:  60; 6HR MAX TEMP:  73;

MANITOWOC      NOT AVBL
APPLETON       CLOUDY    61  50  67 NW3       29.81S
CLINTONVILLE   CLOUDY    63  50  63 CALM      29.81S
OSHKOSH        CLOUDY    62  56  80 CALM      29.80F
6HR MIN TEMP:  62; 6HR MAX TEMP:  74; 6HR PCP: TRACE;

$$

WIZ032>034-041-042-053>061-280700-
SOUTHWEST WISCONSIN

CITY           SKY/WX    TMP DP  RH WIND       PRES   REMARKS
LA CROSSE      PTCLDY    57  56  96 CALM      29.82S
6HR MIN TEMP:  56; 6HR MAX TEMP:  66; 6HR PCP:  0.04;

SPARTA         CLOUDY    54  54 100 CALM      29.83S
VIROQUA        CLOUDY    58  53  81 CALM      29.83S
6HR MIN TEMP:  58; 6HR MAX TEMP:  67;

BOSCOBEL       CLOUDY    60  58  92 CALM      29.83R
6HR MIN TEMP:  60; 6HR MAX TEMP:  69; 6HR PCP:  0.03;

PRAIRIE DU CHI CLOUDY    60  57  89 CALM      29.83S
PLATTEVILLE    CLOUDY    61  61 100 CALM      29.82F
$$

WIZ056-057-062-063-064-067-068-280700-
SOUTH CENTRAL WISCONSIN

CITY           SKY/WX    TMP DP  RH WIND       PRES   REMARKS
REEDSBURG      CLOUDY    58  57  99 CALM      29.81S
6HR MIN TEMP:  58; 6HR MAX TEMP:  70;

BARABOO/DELLS  CLOUDY    59  54  81 CALM      29.80F
LONE ROCK      NOT AVBL
MINERAL POINT  CLOUDY    63  61  94 CALM      29.82S
MADISON        CLOUDY    64  55  72 CALM      29.80F
6HR MIN TEMP:  64; 6HR MAX TEMP:  72; 6HR PCP: TRACE;

MIDDLETON      CLOUDY    65  56  74 E5        29.81F
WATERTOWN      CLOUDY    63  61  94 CALM      29.81F
MONROE         CLOUDY    64  55  72 NE5       29.81F
JANESVILLE     CLOUDY    66  61  82 SE3       29.81S
$$

WIZ051-052-058>065-066-070>072-280700-
SOUTHEAST WISCONSIN

CITY           SKY/WX    TMP DP  RH WIND       PRES   REMARKS
MILWAUKEE      CLOUDY    65  55  70 CALM      29.81F
6HR MIN TEMP:  63; 6HR MAX TEMP:  66;

WAUKESHA       CLOUDY    61  54  77 SE5       29.82F
MILWAUKEE/TIMM   N/A     63  52  67 CALM      29.82F
RACINE         CLOUDY    61  51  70 S3        29.83F
6HR MIN TEMP:  60; 6HR MAX TEMP:  65;

KENOSHA        CLOUDY    60  53  77 CALM      29.82F
6HR MIN TEMP:  60; 6HR MAX TEMP:  67;

FOND DU LAC    LGT RAIN  64  54  69 E3        29.82S
6HR MIN TEMP:  64; 6HR MAX TEMP:  75; 6HR PCP: TRACE;

SHEBOYGAN      CLOUDY    61  57  87 W5        29.81F
6HR MIN TEMP:  58; 6HR MAX TEMP:  67; 6HR PCP: TRACE;

WEST BEND      CLOUDY    63  55  77 CALM      29.82F
JUNEAU         CLOUDY    64  56  75 E7        29.82F
$$

LSZ147-162-280700-
LAKE SUPERIOR

STATION/POSITION TIME  TEMP    WIND        PRES    WAVE
                       AIR SEA DIR/SP/G            HT/PER
                 (UTC) (F)     (DEG/KT/KT) (MB)    (FT/S)
W MID LAKE BUOY  0450   44 37  180/  8/ 10 1007.8F   0
DEVILS ISLAND    0500   65     200/ 10/ 13 1007.2F
PORT WING        0530   63     180/  6/  8 1007.5F
SAXON HARBOR     0540   61     190/  5/  8 1007.8F
$$

LMZ867-665-643>646-280700-
LAKE MICHIGAN

STATION/POSITION TIME  TEMP    WIND        PRES    WAVE
                       AIR SEA DIR/SP/G            HT/PER
                 (UTC) (F)     (DEG/KT/KT) (MB)    (FT/S)
CHAMBERS ISLAND  0540   59     190/  3/  5 1008.1F
N MID LAKE BUOY  0450   46 42  170/ 10/ 12 1010.2F   1
NORTHPORT PIER   0540   59     220/  3/  5 1008.1F
SISTER BAY       0351   58     160/  7/  8   N/A
ALGOMA LAKESHORE 0416             CALM       N/A
KEWAUNEE LAKESHO 0530   61     280/  3/  5 1009.0F
SHEBOYGAN LAKESH 0500   63     210/  7/  8 1009.6F
PORT WASHINGTON  0540   59      CALM  /  2 1010.2F
ATWATER BUOY     0409   54     170/  6/  6 1010.5F
MILWAUKEE LAKESH 0530   56     330/  1/  2   N/A
S MID LAKE BUOY  0450   53 49   90/  4/  4 1010.4F   0
KENOSHA   LAKESH 0500   58     170/  6/  7 1010.2
$$

TC  - TEMPERATURE IN CELSIUS
VSB - VISIBILITY IN STATUTE MILES
WCI - WIND CHILL INDEX
HX  - HEAT INDEX





USA.gov is the U.S. government's official web portal to all federal, state and local government web resources and services.